,,,PA_Meas_PMT16A,,PR_Meas_QMR101_102,,RH_Meas_QMH101,,SR_Meas_QMS101,,TA_Meas_QMH101,,GenWind,,GenWind,
date,time,status,PA,status,PR,status,RH,status,SR,status,TA,status,DirAvg,status,SpdAvg,
2009-01-29, 00:00:04,VALID,1008.61,VALID,0,VALID,95.3524,VALID,0,VALID,23.8109,VALID,329,VALID,0,
2009-01-29, 00:01:04,VALID,1008.59,VALID,0,VALID,95.36,VALID,0,VALID,23.8109,VALID,329,VALID,0,
2009-01-29, 00:02:04,VALID,1008.57,VALID,0,VALID,95.3677,VALID,0,VALID,23.8109,VALID,329,VALID,0,
2009-01-29, 00:03:04,VALID,1008.57,VALID,0,VALID,95.3677,VALID,0,VALID,23.8109,VALID,329,VALID,0,
2009-01-29, 00:04:04,VALID,1008.56,VALID,0,VALID,95.3524,VALID,0,VALID,23.7914,VALID,329,VALID,0,
2009-01-29, 00:05:04,VALID,1008.52,VALID,0,VALID,95.3524,VALID,0,VALID,23.8109,VALID,326,VALID,0,
2009-01-29, 00:06:04,VALID,1008.49,VALID,0,VALID,95.3372,VALID,0,VALID,23.8109,VALID,313,VALID,0.0546875,
2009-01-29, 00:07:04,VALID,1008.49,VALID,0,VALID,95.3448,VALID,0,VALID,23.8109,VALID,308,VALID,0,
2009-01-29, 00:08:04,VALID,1008.48,VALID,0,VALID,95.3448,VALID,0,VALID,23.8304,VALID,308,VALID,0,
2009-01-29, 00:09:04,VALID,1008.46,VALID,0,VALID,95.3295,VALID,0,VALID,23.8499,VALID,308,VALID,0,
2009-01-29, 00:10:04,VALID,1008.46,VALID,0,VALID,95.3219,VALID,0,VALID,23.8499,VALID,308,VALID,0,
2009-01-29, 00:11:04,VALID,1008.43,VALID,0,VALID,95.299,VALID,0,VALID,23.8499,VALID,308,VALID,0,
2009-01-29, 00:12:04,VALID,1008.4,VALID,0,VALID,95.299,VALID,0,VALID,23.8304,VALID,308,VALID,0,
2009-01-29, 00:13:04,VALID,1008.4,VALID,0,VALID,95.2762,VALID,0,VALID,23.8304,VALID,307,VALID,0,
2009-01-29, 00:14:04,VALID,1008.37,VALID,0,VALID,95.2609,VALID,0,VALID,23.8304,VALID,288,VALID,0.371484,
2009-01-29, 00:15:04,VALID,1008.38,VALID,0,VALID,95.2304,VALID,0,VALID,23.8304,VALID,282,VALID,0.443359,
2009-01-29, 00:16:04,VALID,1008.37,VALID,0,VALID,95.2228,VALID,0,VALID,23.8304,VALID,281,VALID,0.230078,
2009-01-29, 00:17:04,VALID,1008.33,VALID,0,VALID,95.2075,VALID,0,VALID,23.8109,VALID,281,VALID,0.0148437,
2009-01-29, 00:18:04,VALID,1008.36,VALID,0,VALID,95.177,VALID,0,VALID,23.8304,VALID,294,VALID,0.242969,
2009-01-29, 00:19:04,VALID,1008.35,VALID,0,VALID,95.1694,VALID,0,VALID,23.8109,VALID,303,VALID,0.175391,
2009-01-29, 00:20:04,VALID,1008.37,VALID,0,VALID,95.1236,VALID,0,VALID,23.8091,VALID,292,VALID,0.6,
2009-01-29, 00:21:04,VALID,1008.38,VALID,0,VALID,95.1084,VALID,0,VALID,23.8109,VALID,282,VALID,0.355859,
2009-01-29, 00:22:04,VALID,1008.39,VALID,0,VALID,95.0855,VALID,0,VALID,23.7914,VALID,280,VALID,0.521094,
2009-01-29, 00:23:04,VALID,1008.4,VALID,0,VALID,95.0321,VALID,0,VALID,23.8109,VALID,275,VALID,0,
2009-01-29, 00:24:04,VALID,1008.43,VALID,0,VALID,95.0016,VALID,0,VALID,23.8091,VALID,275,VALID,0.180859,
2009-01-29, 00:25:04,VALID,1008.42,VALID,0,VALID,94.9559,VALID,0,VALID,23.7914,VALID,270,VALID,0,
2009-01-29, 00:26:04,VALID,1008.4,VALID,0,VALID,94.933,VALID,0,VALID,23.8109,VALID,284,VALID,0,
2009-01-29, 00:27:04,VALID,1008.37,VALID,0,VALID,94.872,VALID,0,VALID,23.8109,VALID,284,VALID,0,
2009-01-29, 00:28:04,VALID,1008.38,VALID,0,VALID,94.872,VALID,0,VALID,23.8109,VALID,284,VALID,0,
2009-01-29, 00:29:04,VALID,1008.4,VALID,0,VALID,94.8568,VALID,0,VALID,23.8109,VALID,283,VALID,0,
2009-01-29, 00:30:04,VALID,1008.42,VALID,0,VALID,94.811,VALID,0,VALID,23.7914,VALID,280,VALID,0,
2009-01-29, 00:31:04,VALID,1008.38,VALID,0,VALID,94.7957,VALID,0,VALID,23.7701,VALID,261,VALID,0,
2009-01-29, 00:32:04,VALID,1008.42,VALID,0,VALID,94.7652,VALID,0,VALID,23.772,VALID,266,VALID,0,
2009-01-29, 00:33:04,VALID,1008.43,VALID,0,VALID,94.7729,VALID,0,VALID,23.7507,VALID,306,VALID,0,
2009-01-29, 00:34:04,VALID,1008.4,VALID,0,VALID,94.7347,VALID,0,VALID,23.7507,VALID,306,VALID,0,
2009-01-29, 00:35:04,VALID,1008.4,VALID,0,VALID,94.7424,VALID,0,VALID,23.772,VALID,303,VALID,0,
2009-01-29, 00:36:04,VALID,1008.38,VALID,0,VALID,94.7195,VALID,0,VALID,23.7312,VALID,294,VALID,0,
2009-01-29, 00:37:04,VALID,1008.38,VALID,0,VALID,94.7042,VALID,0,VALID,23.772,VALID,294,VALID,0,
2009-01-29, 00:38:04,VALID,1008.4,VALID,0,VALID,94.7271,VALID,0,VALID,23.733,VALID,294,VALID,0,
2009-01-29, 00:39:04,VALID,1008.37,VALID,0,VALID,94.7119,VALID,0,VALID,23.733,VALID,294,VALID,0,
2009-01-29, 00:40:04,VALID,1008.37,VALID,0,VALID,94.6966,VALID,0,VALID,23.7135,VALID,291,VALID,0,
2009-01-29, 00:41:04,VALID,1008.36,VALID,0,VALID,94.7042,VALID,0.105969,VALID,23.7117,VALID,269,VALID,0,
2009-01-29, 00:42:04,VALID,1008.34,VALID,0,VALID,94.7119,VALID,0,VALID,23.7117,VALID,269,VALID,0,
2009-01-29, 00:43:04,VALID,1008.34,VALID,0,VALID,94.7119,VALID,0.105969,VALID,23.6922,VALID,269,VALID,0,
2009-01-29, 00:44:04,VALID,1008.35,VALID,0,VALID,94.7042,VALID,0.105969,VALID,23.7117,VALID,269,VALID,0.235938,
2009-01-29, 00:45:04,VALID,1008.35,VALID,0,VALID,94.6966,VALID,0.105969,VALID,23.7117,VALID,290,VALID,0.294922,
2009-01-29, 00:46:04,VALID,1008.32,VALID,0,VALID,94.6966,VALID,0,VALID,23.7312,VALID,290,VALID,0.2875,
2009-01-29, 00:47:04,VALID,1008.31,VALID,0,VALID,94.6737,VALID,0,VALID,23.7117,VALID,257,VALID,0.119531,
2009-01-29, 00:48:04,VALID,1008.26,VALID,0,VALID,94.6737,VALID,0.105969,VALID,23.7117,VALID,258,VALID,0,
2009-01-29, 00:49:04,VALID,1008.22,VALID,0,VALID,94.6814,VALID,0.105969,VALID,23.7117,VALID,258,VALID,0.0105469,
2009-01-29, 00:50:04,VALID,1008.23,VALID,0,VALID,94.6661,VALID,0.105969,VALID,23.6922,VALID,258,VALID,0.00078125,
2009-01-29, 00:51:04,VALID,1008.21,VALID,0,VALID,94.6585,VALID,0,VALID,23.6515,VALID,262,VALID,0.344531,
2009-01-29, 00:52:04,VALID,1008.16,VALID,0,VALID,94.6661,VALID,0.105969,VALID,23.6922,VALID,267,VALID,0,
2009-01-29, 00:53:04,VALID,1008.16,VALID,0,VALID,94.6814,VALID,0.105969,VALID,23.6727,VALID,267,VALID,0,
2009-01-29, 00:54:04,VALID,1008.14,VALID,0,VALID,94.6814,VALID,0.105969,VALID,23.6515,VALID,267,VALID,0,
2009-01-29, 00:55:04,VALID,1008.13,VALID,0,VALID,94.6661,VALID,0.105969,VALID,23.6532,VALID,267,VALID,0,
2009-01-29, 00:56:04,VALID,1008.1,VALID,0,VALID,94.6737,VALID,0,VALID,23.6161,VALID,267,VALID,0,
2009-01-29, 00:57:04,VALID,1008.08,VALID,0,VALID,94.6814,VALID,0,VALID,23.6161,VALID,267,VALID,0,
2009-01-29, 00:58:04,VALID,1008.09,VALID,0,VALID,94.689,VALID,0,VALID,23.6161,VALID,267,VALID,0,
2009-01-29, 00:59:04,VALID,1008.03,VALID,0,VALID,94.7271,VALID,0,VALID,23.6161,VALID,267,VALID,0,
2009-01-29, 01:00:04,VALID,1008.03,VALID,0,VALID,94.7119,VALID,0,VALID,23.5966,VALID,267,VALID,0,
2009-01-29, 01:01:04,VALID,1008.01,VALID,0,VALID,94.7424,VALID,0,VALID,23.5771,VALID,267,VALID,0,
2009-01-29, 01:02:04,VALID,1007.99,VALID,0,VALID,94.75,VALID,0,VALID,23.5558,VALID,267,VALID,0,
2009-01-29, 01:03:04,VALID,1007.98,VALID,0,VALID,94.7805,VALID,0,VALID,23.5576,VALID,267,VALID,0,
2009-01-29, 01:04:04,VALID,1007.96,VALID,0,VALID,94.7957,VALID,0,VALID,23.5381,VALID,267,VALID,0,
2009-01-29, 01:05:04,VALID,1007.91,VALID,0,VALID,94.8186,VALID,0,VALID,23.5186,VALID,267,VALID,0,
2009-01-29, 01:06:04,VALID,1007.87,VALID,0,VALID,94.8262,VALID,0,VALID,23.4797,VALID,267,VALID,0,
2009-01-29, 01:07:04,VALID,1007.86,VALID,0,VALID,94.872,VALID,0,VALID,23.4992,VALID,267,VALID,0,
2009-01-29, 01:08:04,VALID,1007.81,VALID,0,VALID,94.8644,VALID,0,VALID,23.4797,VALID,267,VALID,0,
2009-01-29, 01:09:04,VALID,1007.76,VALID,0,VALID,94.8873,VALID,0,VALID,23.4602,VALID,267,VALID,0,
2009-01-29, 01:10:04,VALID,1007.77,VALID,0,VALID,94.9025,VALID,0,VALID,23.4389,VALID,267,VALID,0,
2009-01-29, 01:11:04,VALID,1007.73,VALID,0,VALID,94.9483,VALID,0,VALID,23.4407,VALID,267,VALID,0,
2009-01-29, 01:12:04,VALID,1007.72,VALID,0,VALID,94.9788,VALID,0,VALID,23.4602,VALID,267,VALID,0,
2009-01-29, 01:13:04,VALID,1007.7,VALID,0,VALID,95.0016,VALID,0,VALID,23.4407,VALID,267,VALID,0,
2009-01-29, 01:14:04,VALID,1007.69,VALID,0,VALID,95.0245,VALID,0,VALID,23.4602,VALID,267,VALID,0,
2009-01-29, 01:15:04,VALID,1007.68,VALID,0,VALID,95.0703,VALID,0,VALID,23.4407,VALID,267,VALID,0.0660156,
2009-01-29, 01:16:04,VALID,1007.69,VALID,0,VALID,95.1008,VALID,0,VALID,23.4212,VALID,267,VALID,0.0613281,
2009-01-29, 01:17:04,VALID,1007.68,VALID,0,VALID,95.1236,VALID,0,VALID,23.4212,VALID,267,VALID,0,
2009-01-29, 01:18:04,VALID,1007.67,VALID,0,VALID,95.1313,VALID,0,VALID,23.4212,VALID,277,VALID,0.191406,
2009-01-29, 01:19:04,VALID,1007.67,VALID,0,VALID,95.1465,VALID,0,VALID,23.4017,VALID,277,VALID,0.0179687,
2009-01-29, 01:20:04,VALID,1007.65,VALID,0,VALID,95.1542,VALID,0,VALID,23.3823,VALID,277,VALID,0,
2009-01-29, 01:21:04,VALID,1007.61,VALID,0,VALID,95.177,VALID,0,VALID,23.3628,VALID,277,VALID,0.0046875,
2009-01-29, 01:22:04,VALID,1007.64,VALID,0,VALID,95.1847,VALID,0,VALID,23.3628,VALID,277,VALID,0.182031,
2009-01-29, 01:23:04,VALID,1007.63,VALID,0,VALID,95.1999,VALID,0,VALID,23.3415,VALID,277,VALID,0.0339844,
2009-01-29, 01:24:04,VALID,1007.6,VALID,0,VALID,95.2304,VALID,0,VALID,23.322,VALID,277,VALID,0,
2009-01-29, 01:25:04,VALID,1007.61,VALID,0,VALID,95.238,VALID,0,VALID,23.3433,VALID,277,VALID,0,
2009-01-29, 01:26:04,VALID,1007.63,VALID,0,VALID,95.2609,VALID,0,VALID,23.3238,VALID,277,VALID,0,
2009-01-29, 01:27:04,VALID,1007.63,VALID,0,VALID,95.2838,VALID,0,VALID,23.322,VALID,277,VALID,0,
2009-01-29, 01:28:04,VALID,1007.63,VALID,0,VALID,95.2838,VALID,0,VALID,23.3433,VALID,277,VALID,0,
2009-01-29, 01:29:04,VALID,1007.64,VALID,0,VALID,95.3143,VALID,0,VALID,23.3433,VALID,277,VALID,0,
2009-01-29, 01:30:04,VALID,1007.62,VALID,0,VALID,95.3219,VALID,0,VALID,23.2831,VALID,277,VALID,0,
2009-01-29, 01:31:04,VALID,1007.63,VALID,0,VALID,95.3219,VALID,0,VALID,23.3238,VALID,277,VALID,0,
2009-01-29, 01:32:04,VALID,1007.61,VALID,0,VALID,95.3372,VALID,0,VALID,23.3238,VALID,277,VALID,0,
2009-01-29, 01:33:04,VALID,1007.59,VALID,0,VALID,95.3524,VALID,0,VALID,23.3238,VALID,277,VALID,0,
2009-01-29, 01:34:04,VALID,1007.56,VALID,0,VALID,95.36,VALID,0,VALID,23.3043,VALID,277,VALID,0,
2009-01-29, 01:35:04,VALID,1007.55,VALID,0,VALID,95.3829,VALID,0,VALID,23.3043,VALID,277,VALID,0,
2009-01-29, 01:36:04,VALID,1007.53,VALID,0,VALID,95.3753,VALID,0,VALID,23.3043,VALID,277,VALID,0,
2009-01-29, 01:37:04,VALID,1007.52,VALID,0,VALID,95.3905,VALID,0,VALID,23.3238,VALID,277,VALID,0,
2009-01-29, 01:38:04,VALID,1007.5,VALID,0,VALID,95.4134,VALID,0,VALID,23.3238,VALID,277,VALID,0,
2009-01-29, 01:39:04,VALID,1007.48,VALID,0,VALID,95.4363,VALID,0,VALID,23.3238,VALID,277,VALID,0,
2009-01-29, 01:40:04,VALID,1007.45,VALID,0,VALID,95.4363,VALID,0,VALID,23.322,VALID,277,VALID,0,
2009-01-29, 01:41:04,VALID,1007.42,VALID,0,VALID,95.4439,VALID,0,VALID,23.3026,VALID,277,VALID,0,
2009-01-29, 01:42:04,VALID,1007.41,VALID,0,VALID,95.4592,VALID,0,VALID,23.3043,VALID,277,VALID,0,
2009-01-29, 01:43:04,VALID,1007.42,VALID,0,VALID,95.4439,VALID,0,VALID,23.3043,VALID,277,VALID,0,
2009-01-29, 01:44:04,VALID,1007.43,VALID,0,VALID,95.4592,VALID,0,VALID,23.3043,VALID,277,VALID,0,
2009-01-29, 01:45:04,VALID,1007.42,VALID,0,VALID,95.4592,VALID,0,VALID,23.3043,VALID,277,VALID,0,
2009-01-29, 01:46:04,VALID,1007.42,VALID,0,VALID,95.4821,VALID,0,VALID,23.3238,VALID,277,VALID,0,
2009-01-29, 01:47:04,VALID,1007.4,VALID,0,VALID,95.4668,VALID,0,VALID,23.3043,VALID,277,VALID,0,
2009-01-29, 01:48:04,VALID,1007.42,VALID,0,VALID,95.4668,VALID,0,VALID,23.3256,VALID,277,VALID,0,
2009-01-29, 01:49:04,VALID,1007.42,VALID,0,VALID,95.4744,VALID,0,VALID,23.2848,VALID,277,VALID,0,
2009-01-29, 01:50:04,VALID,1007.39,VALID,0,VALID,95.4897,VALID,0,VALID,23.2848,VALID,308,VALID,0.374219,
2009-01-29, 01:51:04,VALID,1007.39,VALID,0,VALID,95.4973,VALID,0,VALID,23.2831,VALID,279,VALID,0.486328,
2009-01-29, 01:52:04,VALID,1007.39,VALID,0,VALID,95.5049,VALID,0,VALID,23.3043,VALID,305,VALID,0.539063,
2009-01-29, 01:53:04,VALID,1007.38,VALID,0,VALID,95.5049,VALID,0,VALID,23.3238,VALID,309,VALID,0.526563,
2009-01-29, 01:54:04,VALID,1007.37,VALID,0,VALID,95.5202,VALID,0,VALID,23.3026,VALID,286,VALID,0.466797,
2009-01-29, 01:55:04,VALID,1007.39,VALID,0,VALID,95.5049,VALID,0,VALID,23.3433,VALID,310,VALID,0.476563,
2009-01-29, 01:56:04,VALID,1007.37,VALID,0,VALID,95.5126,VALID,0,VALID,23.3433,VALID,308,VALID,0.741797,
2009-01-29, 01:57:04,VALID,1007.36,VALID,0,VALID,95.5126,VALID,0,VALID,23.3433,VALID,309,VALID,0.594922,
2009-01-29, 01:58:04,VALID,1007.35,VALID,0,VALID,95.4973,VALID,0,VALID,23.3628,VALID,311,VALID,0.572266,
2009-01-29, 01:59:04,VALID,1007.32,VALID,0,VALID,95.4897,VALID,0,VALID,23.3628,VALID,3,VALID,0.367188,
2009-01-29, 02:00:04,VALID,1007.33,VALID,0,VALID,95.4897,VALID,0,VALID,23.322,VALID,3,VALID,0,
2009-01-29, 02:01:04,VALID,1007.31,VALID,0,VALID,95.5049,VALID,0,VALID,23.3433,VALID,351,VALID,0.059375,
2009-01-29, 02:02:04,VALID,1007.3,VALID,0,VALID,95.4897,VALID,0,VALID,23.3238,VALID,309,VALID,0.510938,
2009-01-29, 02:03:04,VALID,1007.34,VALID,0,VALID,95.4897,VALID,0,VALID,23.3433,VALID,308,VALID,0.645703,
2009-01-29, 02:04:04,VALID,1007.33,VALID,0,VALID,95.4821,VALID,0,VALID,23.3628,VALID,322,VALID,0.615234,
2009-01-29, 02:05:04,VALID,1007.35,VALID,0,VALID,95.4744,VALID,0,VALID,23.3628,VALID,323,VALID,0.398438,
2009-01-29, 02:06:04,VALID,1007.34,VALID,0,VALID,95.4592,VALID,0,VALID,23.3628,VALID,338,VALID,0.158203,
2009-01-29, 02:07:04,VALID,1007.36,VALID,0,VALID,95.4439,VALID,0,VALID,23.3628,VALID,283,VALID,0.64375,
2009-01-29, 02:08:04,VALID,1007.35,VALID,0,VALID,95.4516,VALID,0,VALID,23.3628,VALID,321,VALID,0.797266,
2009-01-29, 02:09:04,VALID,1007.36,VALID,0,VALID,95.4363,VALID,0,VALID,23.3628,VALID,319,VALID,0.0210938,
2009-01-29, 02:10:04,VALID,1007.36,VALID,0,VALID,95.4058,VALID,0,VALID,23.3628,VALID,294,VALID,0.778516,
2009-01-29, 02:11:04,VALID,1007.34,VALID,0,VALID,95.3982,VALID,0,VALID,23.3823,VALID,281,VALID,0.803125,
2009-01-29, 02:12:04,VALID,1007.37,VALID,0,VALID,95.3905,VALID,0,VALID,23.3823,VALID,275,VALID,0,
2009-01-29, 02:13:04,VALID,1007.37,VALID,0,VALID,95.3905,VALID,0,VALID,23.3823,VALID,277,VALID,0,
2009-01-29, 02:14:04,VALID,1007.4,VALID,0,VALID,95.3524,VALID,0,VALID,23.361,VALID,277,VALID,0,
2009-01-29, 02:15:04,VALID,1007.38,VALID,0,VALID,95.3524,VALID,0,VALID,23.4017,VALID,270,VALID,0,
2009-01-29, 02:16:04,VALID,1007.37,VALID,0,VALID,95.3219,VALID,0,VALID,23.3805,VALID,271,VALID,0.122266,
2009-01-29, 02:17:04,VALID,1007.35,VALID,0,VALID,95.3219,VALID,0,VALID,23.3805,VALID,234,VALID,0.527734,
2009-01-29, 02:18:04,VALID,1007.35,VALID,0,VALID,95.2914,VALID,0,VALID,23.4017,VALID,258,VALID,0.269141,
2009-01-29, 02:19:04,VALID,1007.34,VALID,0,VALID,95.2685,VALID,0,VALID,23.4017,VALID,259,VALID,0.108203,
2009-01-29, 02:20:04,VALID,1007.31,VALID,0,VALID,95.2533,VALID,0,VALID,23.4,VALID,259,VALID,0.232031,
2009-01-29, 02:21:04,VALID,1007.27,VALID,0,VALID,95.2304,VALID,0,VALID,23.4212,VALID,259,VALID,0,
2009-01-29, 02:22:04,VALID,1007.26,VALID,0,VALID,95.2228,VALID,0,VALID,23.4194,VALID,276,VALID,0.289063,
2009-01-29, 02:23:04,VALID,1007.26,VALID,0,VALID,95.2075,VALID,0,VALID,23.4212,VALID,276,VALID,0.256641,
2009-01-29, 02:24:04,VALID,1007.28,VALID,0,VALID,95.1923,VALID,0,VALID,23.4017,VALID,276,VALID,0.307813,
2009-01-29, 02:25:04,VALID,1007.25,VALID,0,VALID,95.1847,VALID,0,VALID,23.4,VALID,276,VALID,0,
2009-01-29, 02:26:04,VALID,1007.28,VALID,0,VALID,95.1618,VALID,0,VALID,23.4,VALID,276,VALID,0,
2009-01-29, 02:27:04,VALID,1007.27,VALID,0,VALID,95.1465,VALID,0,VALID,23.4212,VALID,276,VALID,0,
2009-01-29, 02:28:04,VALID,1007.27,VALID,0,VALID,95.1618,VALID,0,VALID,23.4212,VALID,276,VALID,0,
2009-01-29, 02:29:04,VALID,1007.28,VALID,0,VALID,95.1236,VALID,0,VALID,23.4017,VALID,276,VALID,0,
2009-01-29, 02:30:04,VALID,1007.26,VALID,0,VALID,95.0931,VALID,0,VALID,23.4,VALID,276,VALID,0,
2009-01-29, 02:31:04,VALID,1007.24,VALID,0,VALID,95.0931,VALID,0,VALID,23.4212,VALID,276,VALID,0,
2009-01-29, 02:32:04,VALID,1007.28,VALID,0,VALID,95.1084,VALID,0,VALID,23.4212,VALID,276,VALID,0,
2009-01-29, 02:33:04,VALID,1007.28,VALID,0,VALID,95.0855,VALID,0,VALID,23.4194,VALID,276,VALID,0,
2009-01-29, 02:34:04,VALID,1007.31,VALID,0,VALID,95.0703,VALID,0,VALID,23.4017,VALID,276,VALID,0,
2009-01-29, 02:35:04,VALID,1007.33,VALID,0,VALID,95.0855,VALID,0,VALID,23.4017,VALID,295,VALID,0,
2009-01-29, 02:36:04,VALID,1007.36,VALID,0,VALID,95.0703,VALID,0,VALID,23.361,VALID,305,VALID,0,
2009-01-29, 02:37:04,VALID,1007.38,VALID,0,VALID,95.0779,VALID,0,VALID,23.3823,VALID,306,VALID,0,
2009-01-29, 02:38:04,VALID,1007.43,VALID,0,VALID,95.0703,VALID,0,VALID,23.3628,VALID,306,VALID,0,
2009-01-29, 02:39:04,VALID,1007.48,VALID,0,VALID,95.0703,VALID,0,VALID,23.3433,VALID,306,VALID,0,
2009-01-29, 02:40:04,VALID,1007.49,VALID,0,VALID,95.0779,VALID,0,VALID,23.322,VALID,306,VALID,0,
2009-01-29, 02:41:04,VALID,1007.5,VALID,0,VALID,95.0855,VALID,0,VALID,23.3238,VALID,306,VALID,0,
2009-01-29, 02:42:04,VALID,1007.52,VALID,0,VALID,95.0931,VALID,0,VALID,23.3238,VALID,306,VALID,0,
2009-01-29, 02:43:04,VALID,1007.54,VALID,0,VALID,95.1084,VALID,0,VALID,23.3238,VALID,311,VALID,0,
2009-01-29, 02:44:04,VALID,1007.55,VALID,0,VALID,95.1084,VALID,0,VALID,23.3043,VALID,341,VALID,0,
2009-01-29, 02:45:04,VALID,1007.57,VALID,0,VALID,95.1389,VALID,0,VALID,23.3043,VALID,341,VALID,0,
2009-01-29, 02:46:04,VALID,1007.57,VALID,0,VALID,95.1542,VALID,0,VALID,23.3238,VALID,354,VALID,0,
2009-01-29, 02:47:04,VALID,1007.58,VALID,0,VALID,95.1618,VALID,0,VALID,23.3238,VALID,354,VALID,0,
2009-01-29, 02:48:04,VALID,1007.61,VALID,0,VALID,95.1618,VALID,0,VALID,23.3238,VALID,354,VALID,0,
2009-01-29, 02:49:04,VALID,1007.59,VALID,0,VALID,95.177,VALID,0,VALID,23.3026,VALID,354,VALID,0,
2009-01-29, 02:50:04,VALID,1007.6,VALID,0,VALID,95.1847,VALID,0,VALID,23.3238,VALID,354,VALID,0,
2009-01-29, 02:51:04,VALID,1007.6,VALID,0,VALID,95.2228,VALID,0,VALID,23.3043,VALID,354,VALID,0,
2009-01-29, 02:52:04,VALID,1007.61,VALID,0,VALID,95.238,VALID,0,VALID,23.3238,VALID,354,VALID,0,
2009-01-29, 02:53:04,VALID,1007.62,VALID,0,VALID,95.2609,VALID,0,VALID,23.3026,VALID,353,VALID,0,
2009-01-29, 02:54:04,VALID,1007.61,VALID,0,VALID,95.2533,VALID,0,VALID,23.3433,VALID,353,VALID,0,
2009-01-29, 02:55:04,VALID,1007.62,VALID,0,VALID,95.2609,VALID,0,VALID,23.3628,VALID,353,VALID,0,
2009-01-29, 02:56:04,VALID,1007.63,VALID,0,VALID,95.2685,VALID,0,VALID,23.3628,VALID,353,VALID,0,
2009-01-29, 02:57:04,VALID,1007.66,VALID,0,VALID,95.2914,VALID,0,VALID,23.3628,VALID,353,VALID,0,
2009-01-29, 02:58:04,VALID,1007.66,VALID,0,VALID,95.299,VALID,0,VALID,23.3628,VALID,353,VALID,0,
2009-01-29, 02:59:04,VALID,1007.68,VALID,0,VALID,95.3219,VALID,0,VALID,23.3823,VALID,353,VALID,0,
2009-01-29, 03:00:04,VALID,1007.72,VALID,0,VALID,95.3067,VALID,0,VALID,23.3433,VALID,353,VALID,0,
2009-01-29, 03:01:04,VALID,1007.77,VALID,0,VALID,95.3219,VALID,0,VALID,23.3628,VALID,353,VALID,0,
2009-01-29, 03:02:04,VALID,1007.77,VALID,0,VALID,95.3524,VALID,0,VALID,23.3628,VALID,353,VALID,0,
2009-01-29, 03:03:04,VALID,1007.79,VALID,0,VALID,95.36,VALID,0,VALID,23.3415,VALID,353,VALID,0,
2009-01-29, 03:04:04,VALID,1007.83,VALID,0,VALID,95.3524,VALID,0,VALID,23.3433,VALID,353,VALID,0,
2009-01-29, 03:05:04,VALID,1007.85,VALID,0,VALID,95.3677,VALID,0,VALID,23.3433,VALID,353,VALID,0,
2009-01-29, 03:06:04,VALID,1007.84,VALID,0,VALID,95.3524,VALID,0,VALID,23.3433,VALID,353,VALID,0,
2009-01-29, 03:07:04,VALID,1007.84,VALID,0,VALID,95.3524,VALID,0,VALID,23.3026,VALID,353,VALID,0,
2009-01-29, 03:08:04,VALID,1007.87,VALID,0,VALID,95.3524,VALID,0,VALID,23.3238,VALID,354,VALID,0,
2009-01-29, 03:09:04,VALID,1007.88,VALID,0,VALID,95.3448,VALID,0,VALID,23.3043,VALID,354,VALID,0,
2009-01-29, 03:10:04,VALID,1007.88,VALID,0,VALID,95.3524,VALID,0,VALID,23.3238,VALID,354,VALID,0,
2009-01-29, 03:11:04,VALID,1007.88,VALID,0,VALID,95.3753,VALID,0,VALID,23.3026,VALID,2,VALID,0,
2009-01-29, 03:12:04,VALID,1007.93,VALID,0,VALID,95.3753,VALID,0,VALID,23.3026,VALID,49,VALID,0,
2009-01-29, 03:13:04,VALID,1007.96,VALID,0,VALID,95.3677,VALID,0,VALID,23.322,VALID,49,VALID,0,
2009-01-29, 03:14:04,VALID,1007.98,VALID,0,VALID,95.3753,VALID,0,VALID,23.3433,VALID,49,VALID,0,
2009-01-29, 03:15:04,VALID,1007.99,VALID,0,VALID,95.3753,VALID,0,VALID,23.3628,VALID,49,VALID,0,
2009-01-29, 03:16:04,VALID,1008.01,VALID,0,VALID,95.3829,VALID,0,VALID,23.3415,VALID,49,VALID,0,
2009-01-29, 03:17:04,VALID,1008,VALID,0,VALID,95.3905,VALID,0,VALID,23.3628,VALID,49,VALID,0,
2009-01-29, 03:18:04,VALID,1008.02,VALID,0,VALID,95.3829,VALID,0,VALID,23.3415,VALID,53,VALID,0,
2009-01-29, 03:19:04,VALID,1008.01,VALID,0,VALID,95.4058,VALID,0,VALID,23.3433,VALID,75,VALID,0,
2009-01-29, 03:20:04,VALID,1008.02,VALID,0,VALID,95.3982,VALID,0,VALID,23.3415,VALID,75,VALID,0,
2009-01-29, 03:21:04,VALID,1008.04,VALID,0,VALID,95.3829,VALID,0,VALID,23.3628,VALID,75,VALID,0,
2009-01-29, 03:22:04,VALID,1008.04,VALID,0,VALID,95.3905,VALID,0,VALID,23.3628,VALID,75,VALID,0,
2009-01-29, 03:23:04,VALID,1008.03,VALID,0,VALID,95.3905,VALID,0,VALID,23.3628,VALID,75,VALID,0,
2009-01-29, 03:24:04,VALID,1008.01,VALID,0,VALID,95.4058,VALID,0,VALID,23.3628,VALID,75,VALID,0,
2009-01-29, 03:25:04,VALID,1008.02,VALID,0,VALID,95.4134,VALID,0,VALID,23.3628,VALID,75,VALID,0,
2009-01-29, 03:26:04,VALID,1008.02,VALID,0,VALID,95.4134,VALID,0,VALID,23.3823,VALID,75,VALID,0,
2009-01-29, 03:27:04,VALID,1008.02,VALID,0,VALID,95.4211,VALID,0,VALID,23.3823,VALID,75,VALID,0,
2009-01-29, 03:28:04,VALID,1008.01,VALID,0,VALID,95.4058,VALID,0,VALID,23.3805,VALID,75,VALID,0,
2009-01-29, 03:29:04,VALID,1008.02,VALID,0,VALID,95.4058,VALID,0,VALID,23.3805,VALID,75,VALID,0,
2009-01-29, 03:30:04,VALID,1008.03,VALID,0,VALID,95.4134,VALID,0,VALID,23.4017,VALID,75,VALID,0,
2009-01-29, 03:31:04,VALID,1007.99,VALID,0,VALID,95.4211,VALID,0,VALID,23.4212,VALID,75,VALID,0,
2009-01-29, 03:32:04,VALID,1007.97,VALID,0,VALID,95.4058,VALID,0,VALID,23.4017,VALID,75,VALID,0,
2009-01-29, 03:33:04,VALID,1007.94,VALID,0,VALID,95.4211,VALID,0,VALID,23.3823,VALID,75,VALID,0,
2009-01-29, 03:34:04,VALID,1007.92,VALID,0,VALID,95.4363,VALID,0,VALID,23.3823,VALID,75,VALID,0,
2009-01-29, 03:35:04,VALID,1007.9,VALID,0,VALID,95.4211,VALID,0,VALID,23.3628,VALID,75,VALID,0,
2009-01-29, 03:36:04,VALID,1007.86,VALID,0,VALID,95.4287,VALID,0,VALID,23.3415,VALID,75,VALID,0,
2009-01-29, 03:37:04,VALID,1007.87,VALID,0,VALID,95.4211,VALID,0,VALID,23.361,VALID,75,VALID,0,
2009-01-29, 03:38:04,VALID,1007.85,VALID,0,VALID,95.4363,VALID,0,VALID,23.3823,VALID,75,VALID,0,
2009-01-29, 03:39:04,VALID,1007.83,VALID,0,VALID,95.4439,VALID,0,VALID,23.4212,VALID,75,VALID,0,
2009-01-29, 03:40:04,VALID,1007.81,VALID,0,VALID,95.4363,VALID,0,VALID,23.361,VALID,75,VALID,0,
2009-01-29, 03:41:04,VALID,1007.78,VALID,0,VALID,95.4363,VALID,0,VALID,23.3415,VALID,75,VALID,0,
2009-01-29, 03:42:04,VALID,1007.83,VALID,0,VALID,95.4363,VALID,0,VALID,23.3628,VALID,75,VALID,0,
2009-01-29, 03:43:04,VALID,1007.81,VALID,0,VALID,95.4439,VALID,0,VALID,23.3415,VALID,75,VALID,0,
2009-01-29, 03:44:04,VALID,1007.79,VALID,0,VALID,95.4363,VALID,0,VALID,23.3628,VALID,75,VALID,0,
2009-01-29, 03:45:04,VALID,1007.79,VALID,0,VALID,95.4439,VALID,0,VALID,23.3433,VALID,75,VALID,0,
2009-01-29, 03:46:04,VALID,1007.79,VALID,0,VALID,95.4287,VALID,0,VALID,23.3238,VALID,75,VALID,0,
2009-01-29, 03:47:04,VALID,1007.82,VALID,0,VALID,95.4287,VALID,0,VALID,23.3433,VALID,75,VALID,0,
2009-01-29, 03:48:04,VALID,1007.83,VALID,0,VALID,95.4363,VALID,0,VALID,23.3433,VALID,75,VALID,0,
2009-01-29, 03:49:04,VALID,1007.83,VALID,0,VALID,95.4211,VALID,0,VALID,23.3238,VALID,75,VALID,0,
2009-01-29, 03:50:04,VALID,1007.83,VALID,0,VALID,95.4287,VALID,0,VALID,23.3043,VALID,75,VALID,0,
2009-01-29, 03:51:04,VALID,1007.87,VALID,0,VALID,95.4211,VALID,0,VALID,23.3238,VALID,75,VALID,0,
2009-01-29, 03:52:04,VALID,1007.9,VALID,0,VALID,95.4287,VALID,0,VALID,23.3043,VALID,75,VALID,0,
2009-01-29, 03:53:04,VALID,1007.89,VALID,0,VALID,95.4363,VALID,0,VALID,23.2848,VALID,75,VALID,0,
2009-01-29, 03:54:04,VALID,1007.9,VALID,0,VALID,95.4211,VALID,0,VALID,23.2848,VALID,75,VALID,0,
2009-01-29, 03:55:04,VALID,1007.94,VALID,0,VALID,95.4363,VALID,0,VALID,23.2848,VALID,75,VALID,0,
2009-01-29, 03:56:04,VALID,1007.93,VALID,0,VALID,95.4516,VALID,0.105969,VALID,23.3026,VALID,26,VALID,0,